Weather History for Sulphur, LA

Change the Weather History Date:

Friday, October 5, 2012

  Actual Average (KLCH) Record (KLCH)
Temperature  
Mean Temperature 75 °F 73 °F  
Max Temperature 86 °F 84 °F 95 °F (1911)
Min Temperature 64 °F 63 °F 46 °F (1987)
Degree Days  
Heating Degree Days 0 0  
Month to date heating degree days 0  
Since 1 July heating degree days 1  
Cooling Degree Days 10 9  
Month to date cooling degree days 46  
Year to date cooling degree days 2586  
Growing Degree Days 25 (Base 50)    
Moisture  
Dew Point 68 °F    
Average Humidity 83    
Maximum Humidity 100    
Minimum Humidity 48    
Precipitation  
Precipitation 0.00 in 0.13 in 4.00 in (1906)
Month to date precipitation 0.71  
Year to date precipitation 44.19  
Snow  
Snow 0.00 in 0.00 in 0.00 in ()
Month to date snowfall 0.0  
Since 1 July snowfall 0.0  
Since 1 September snowfall 0.0  
Snow Depth -    
Sea Level Pressure  
Sea Level Pressure 30.08 in    
Wind  
Wind Speed 2 mph (SSE)    
Max Wind Speed 9 mph    
Max Gust Speed -    
Visibility 7 miles    
Events Fog    
T = Trace of Precipitation, MM = Missing Value Source: NWS Daily Summary

Daily Weather History Graph

Daily Weather History Graph

Search for Another Location

Airport:

Trip Planner

Search our weather history database for the weather conditions in past years. The results will help you decide how hot, cold, wet, or windy it might be!

Date:

Astronomy

Oct. 05, 2012 Rise Set
Actual Time 7:09 AM CDT 6:53 PM CDT
Civil Twilight 6:45 AM CDT 7:17 PM CDT
Nautical Twilight 6:17 AM CDT 7:45 PM CDT
Astronomical Twilight 5:50 AM CDT 8:12 PM CDT
Moon 10:37 PM CDT (10/5) 11:58 AM CDT (10/5)
Length of Visible Light 12h 31m
Length of Day
11h 43m
Waning Gibbous, 74% of the Moon is Illuminated
Oct 5
Waning Gibbous
Oct 8
Last Quarter
Oct 15
New
Oct 21
First Quarter
Oct 29
Full

Hourly Weather History & Observations

Time (CDT) Temp. Heat Index Dew Point Humidity Pressure Visibility Wind Dir Wind Speed Gust Speed Precip Events Conditions
12:15 AM 68.0 °F - 68.0 °F 100% 30.14 in 0.2 mi Calm Calm - N/A Fog Fog
12:35 AM 66.2 °F - 66.2 °F 100% 30.14 in 0.2 mi Calm Calm - N/A Fog Fog
12:55 AM 64.4 °F - 64.4 °F 100% 30.13 in 0.2 mi Calm Calm - N/A Fog Fog
1:15 AM 64.4 °F - 64.4 °F 100% 30.13 in 0.2 mi Calm Calm - N/A Fog Fog
1:35 AM 66.2 °F - 66.2 °F 100% 30.13 in 0.2 mi Calm Calm - N/A Fog Fog
1:55 AM 66.2 °F - 66.2 °F 100% 30.12 in 0.2 mi Calm Calm - N/A Fog Fog
2:15 AM 66.2 °F - 66.2 °F 100% 30.12 in 0.2 mi Calm Calm - N/A Fog Fog
2:35 AM 64.4 °F - 64.4 °F 100% 30.12 in 0.5 mi Calm Calm - N/A Fog Fog
2:55 AM 64.4 °F - 64.4 °F 100% 30.13 in 0.2 mi Calm Calm - N/A Fog Fog
3:15 AM 64.4 °F - 64.4 °F 100% 30.12 in 0.5 mi Calm Calm - N/A Fog Fog
3:35 AM 64.4 °F - 64.4 °F 100% 30.12 in 0.2 mi Calm Calm - N/A Fog Fog
3:55 AM 64.4 °F - 64.4 °F 100% 30.11 in 0.5 mi ENE 3.5 mph - N/A Fog Fog
4:15 AM 64.4 °F - 64.4 °F 100% 30.11 in 2.5 mi Calm Calm - N/A   Mostly Cloudy
4:35 AM 66.2 °F - 66.2 °F 100% 30.11 in 2.5 mi Calm Calm - N/A   Mostly Cloudy
4:55 AM 68.0 °F - 68.0 °F 100% 30.11 in 1.0 mi Calm Calm - N/A   Overcast
5:15 AM 68.0 °F - 68.0 °F 100% 30.11 in 2.0 mi Calm Calm - N/A   Overcast
5:35 AM 68.0 °F - 68.0 °F 100% 30.12 in 0.8 mi Calm Calm - N/A   Overcast
5:55 AM 68.0 °F - 68.0 °F 100% 30.12 in 1.2 mi Calm Calm - N/A   Mist
6:15 AM 64.4 °F - 64.4 °F 100% 30.13 in 0.2 mi Calm Calm - N/A Fog Fog
6:35 AM 64.4 °F - 64.4 °F 100% 30.13 in 1.0 mi Calm Calm - N/A   Mist
6:55 AM 64.4 °F - 64.4 °F 100% 30.13 in 1.0 mi Calm Calm - N/A   Mist
7:35 AM 64.4 °F - 64.4 °F 100% 30.14 in 0.5 mi ENE 3.5 mph - N/A Fog Fog
7:55 AM 69.8 °F - 69.8 °F 100% 30.13 in 4.0 mi Calm Calm - N/A   Clear
8:15 AM 69.8 °F - 69.8 °F 100% 30.14 in 5.0 mi Calm Calm - N/A   Clear
8:35 AM 69.8 °F - 69.8 °F 100% 30.14 in 10.0 mi Calm Calm - N/A   Clear
8:55 AM 71.6 °F - 71.6 °F 100% 30.14 in 10.0 mi ENE 4.6 mph - N/A   Clear
9:15 AM 73.4 °F - 73.4 °F 100% 30.14 in 10.0 mi East 4.6 mph - N/A   Clear
9:35 AM 77.0 °F - 73.4 °F 89% 30.14 in 10.0 mi East 4.6 mph - N/A   Clear
9:55 AM 78.8 °F - 71.6 °F 78% 30.14 in 10.0 mi East 4.6 mph - N/A   Clear
10:15 AM 78.8 °F - 71.6 °F 78% 30.14 in 10.0 mi East 6.9 mph - N/A   Clear
10:35 AM 80.6 °F 84.6 °F 71.6 °F 74% 30.14 in 10.0 mi East 5.8 mph - N/A   Clear
10:55 AM 80.6 °F 84.6 °F 71.6 °F 74% 30.14 in 10.0 mi ESE 6.9 mph - N/A   Scattered Clouds
11:35 AM 82.4 °F 86.3 °F 69.8 °F 66% 30.14 in 10.0 mi SSW 4.6 mph - N/A   Mostly Cloudy
11:55 AM 82.4 °F 84.6 °F 66.2 °F 58% 30.13 in 10.0 mi Calm Calm - N/A   Scattered Clouds
12:15 PM 84.2 °F 85.6 °F 64.4 °F 51% 30.12 in 10.0 mi SE 4.6 mph - N/A   Clear
12:35 PM 84.2 °F 85.6 °F 64.4 °F 51% 30.12 in 10.0 mi ESE 5.8 mph - N/A   Clear
12:55 PM 84.2 °F 85.0 °F 62.6 °F 48% 30.11 in 10.0 mi SSE 5.8 mph - N/A   Clear
1:35 PM 86.0 °F 87.3 °F 64.4 °F 48% 30.09 in 10.0 mi SSE 8.1 mph - N/A   Clear
1:55 PM 86.0 °F 88.2 °F 66.2 °F 51% 30.08 in 10.0 mi South 5.8 mph - N/A   Clear
2:15 PM 86.0 °F 88.2 °F 66.2 °F 51% 30.07 in 10.0 mi Calm Calm - N/A   Scattered Clouds
2:35 PM 86.0 °F 87.3 °F 64.4 °F 48% 30.06 in 10.0 mi SE 3.5 mph - N/A   Scattered Clouds
2:55 PM 86.0 °F 87.3 °F 64.4 °F 48% 30.05 in 10.0 mi Calm Calm - N/A   Clear
3:15 PM 86.0 °F 88.2 °F 66.2 °F 51% 30.04 in 10.0 mi South 6.9 mph - N/A   Clear
3:35 PM 86.0 °F 88.2 °F 66.2 °F 51% 30.04 in 10.0 mi South 5.8 mph - N/A   Clear
3:55 PM 86.0 °F 89.4 °F 68.0 °F 55% 30.03 in 10.0 mi SSE 5.8 mph - N/A   Clear
4:15 PM 86.0 °F 90.4 °F 69.8 °F 58% 30.02 in 10.0 mi SSE 6.9 mph - N/A   Clear
4:35 PM 84.2 °F 88.4 °F 69.8 °F 62% 30.01 in 10.0 mi SSE 6.9 mph - N/A   Clear
4:55 PM 84.2 °F 87.3 °F 68.0 °F 58% 30.01 in 10.0 mi South 9.2 mph - N/A   Clear
5:15 PM 82.4 °F 85.4 °F 68.0 °F 62% 30.01 in 10.0 mi South 6.9 mph - N/A   Clear
5:35 PM 82.4 °F 85.4 °F 68.0 °F 62% 30.01 in 10.0 mi South 4.6 mph - N/A   Clear
5:55 PM 82.4 °F 85.4 °F 68.0 °F 62% 30.01 in 10.0 mi SSW 4.6 mph - N/A   Clear
6:15 PM 80.6 °F 83.2 °F 68.0 °F 65% 30.01 in 10.0 mi South 5.8 mph - N/A   Clear
6:35 PM 78.8 °F - 69.8 °F 74% 30.02 in 10.0 mi South 4.6 mph - N/A   Clear
6:55 PM 77.0 °F - 69.8 °F 78% 30.01 in 10.0 mi South 4.6 mph - N/A   Clear
7:15 PM 75.2 °F - 69.8 °F 83% 30.01 in 10.0 mi South 4.6 mph - N/A   Clear
7:35 PM 73.4 °F - 69.8 °F 88% 30.01 in 10.0 mi South 4.6 mph - N/A   Clear
7:55 PM 73.4 °F - 69.8 °F 88% 30.01 in 10.0 mi South 4.6 mph - N/A   Clear
8:15 PM 73.4 °F - 69.8 °F 88% 30.02 in 10.0 mi South 4.6 mph - N/A   Clear
8:35 PM 73.4 °F - 69.8 °F 88% 30.02 in 10.0 mi South 3.5 mph - N/A   Clear
8:55 PM 73.4 °F - 69.8 °F 88% 30.02 in 10.0 mi Calm Calm - N/A   Clear
9:15 PM 71.6 °F - 69.8 °F 94% 30.02 in 10.0 mi Calm Calm - N/A   Clear
9:35 PM 71.6 °F - 69.8 °F 94% 30.03 in 10.0 mi Calm Calm - N/A   Clear
9:55 PM 71.6 °F - 69.8 °F 94% 30.03 in 10.0 mi Calm Calm - N/A   Clear
10:35 PM 69.8 °F - 69.8 °F 100% 30.03 in 10.0 mi Calm Calm - N/A   Clear
10:55 PM 69.8 °F - 69.8 °F 100% 30.03 in 7.0 mi Calm Calm - N/A   Clear
11:15 PM 69.8 °F - 68.0 °F 94% 30.03 in 10.0 mi Calm Calm - N/A   Clear
11:35 PM 69.8 °F - 68.0 °F 94% 30.03 in 5.0 mi Calm Calm - N/A   Clear
11:55 PM 68.0 °F - 68.0 °F 100% 30.02 in 2.5 mi Calm Calm - N/A   Clear